Content
SEND FEEDBACK

Daily
Averages
Monthly
Summary
Canada

VANCOUVER, BRITISH COLUMBIA


Home > North America > Canada > British Columbia
Elevation: 2 meters     Latitude: 49 11N     Longitude: 123 10W

WEATHER
 
SELECT A DAY
Number of Records: 252,270;   Date Range: 5/15/97 - 10/1/14
 
SHARE

PRINT THIS DATA

[ ← Previous Day ]
WEATHER ALMANAC - 18 JANUARY, 2013
[ Next Day → ]
[ °F ]   °C
Weather ElementAverageHighLow
Temperature2.8 °C4 °C (11:35 am)0 °C (12:35 am)
Dewpoint2.2 °C3 °C (8:15 am)0 °C (12:35 am)
Humidity96.3 %100 % (12:35 am)87 % (1:35 pm)
Barometer1026.1 hPa1027.4 hPa (10:15 pm)1024.7 hPa (5:35 am)
Wind Speed1 km/h7.4 km/h (8:35 am)
Weather ElementAverage
Visibility6.8 km
Wind DirectionNNE (23.4 °)

Weather ElementTotal
Precipitation---
Heating Degree Days16.3 (Base 18.3)
Averaged from 64 records on 18 January, 2013
WEATHER CONDITIONS BREAKOUT
WIND DIRECTION BREAKOUT
WEATHER BY HOUR - 18 JANUARY, 2013
[ °F ]   °C
Local TimeTemperatureDewpointHumidityBarometerVisibilityWind DirectionWind SpeedGust SpeedPrecipitationEventsConditions
12:35 AM0 °C0 °C100 %1025.4 hPa0.3 kmNorthFogFog
12:55 AM1 °C1 °C100 %1025.4 hPa0.3 kmCalmFogFog
1:15 AM2 °C2 °C100 %1025.4 hPa0.8 kmCalmFogFog
1:35 AM1 °C1 °C100 %1025.4 hPa0.3 kmCalmFogFog
1:55 AM2 °C2 °C100 %1025.4 hPa0.8 kmCalmFogFog
2:15 AM2 °C2 °C100 %1025.4 hPa0.8 kmCalmFogFog
2:35 AM2 °C2 °C100 %1025.4 hPa0.3 kmCalmFogFog
2:55 AM2 °C2 °C100 %1025.1 hPa0.8 kmCalmFogFog
3:15 AM2 °C2 °C100 %1025.4 hPa0.3 kmCalmFogFog
3:35 AM2 °C2 °C100 %1025.4 hPa0.8 kmCalmFogFog
3:55 AM2 °C2 °C100 %1025.1 hPa1.9 kmCalmOvercast
4:15 AM2 °C2 °C100 %1025.1 hPa6.4 kmCalmOvercast
4:35 AM2 °C2 °C100 %1025.1 hPa4.8 kmCalmOvercast
4:55 AM2 °C2 °C100 %1025.1 hPa6.4 kmCalmOvercast
5:15 AM2 °C2 °C100 %1025.1 hPa6.4 kmCalmOvercast
5:35 AM2 °C2 °C100 %1024.7 hPa6.4 kmCalmOvercast
5:55 AM2 °C2 °C100 %1024.7 hPa4.8 kmCalmOvercast
6:15 AM2 °C2 °C100 %1024.7 hPa4.8 kmCalmOvercast
6:55 AM2 °C2 °C100 %1024.7 hPa4.8 kmCalmOvercast
7:15 AM2 °C2 °C100 %1024.7 hPa4.8 kmCalmOvercast
7:35 AM2 °C2 °C100 %1025.1 hPa4.8 kmCalmOvercast
7:55 AM2 °C2 °C100 %1025.1 hPa4.8 kmCalmOvercast
8:15 AM3 °C3 °C100 %1025.1 hPa6.4 kmNorthOvercast
8:35 AM3 °C3 °C100 %1025.4 hPa4.8 kmEast (90°)7.4 km/hOvercast
8:55 AM3 °C3 °C100 %1025.7 hPa4.8 kmESE (110°)5.6 km/hOvercast
9:15 AM3 °C3 °C100 %1025.7 hPa4.8 kmCalmOvercast
9:55 AM3 °C3 °C100 %1025.7 hPa8 kmCalmScattered Clouds
10:15 AM3 °C3 °C100 %1026.1 hPa6.4 kmCalmMostly Cloudy
10:35 AM3 °C3 °C100 %1026.1 hPa4.8 kmCalmOvercast
10:55 AM3 °C3 °C100 %1026.4 hPa4.8 kmCalmOvercast
11:15 AM3 °C3 °C100 %1026.4 hPa8 kmCalmOvercast
11:35 AM4 °C3 °C93 %1026.8 hPa9.7 kmENE (60°)5.6 km/hOvercast
11:55 AM3 °C2 °C93 %1026.4 hPa8 kmCalmOvercast
12:15 PM3 °C2 °C93 %1026.4 hPa8 kmEast (100°)5.6 km/hMostly Cloudy
12:35 PM3 °C3 °C100 %1026.1 hPa8 kmENE (60°)5.6 km/hOvercast
12:55 PM4 °C3 °C93 %1026.1 hPa8 kmCalmOvercast
1:15 PM4 °C3 °C93 %1026.1 hPa8 kmNE (50°)7.4 km/hOvercast
1:35 PM4 °C2 °C87 %1026.1 hPa11.3 kmCalmOvercast
2:15 PM4 °C2 °C87 %1026.1 hPa11.3 kmCalmOvercast
2:35 PM4 °C2 °C87 %1026.1 hPa12.9 kmCalmOvercast
2:55 PM4 °C2 °C87 %1026.1 hPa11.3 kmCalmOvercast
3:15 PM4 °C2 °C87 %1026.1 hPa12.9 kmCalmOvercast
3:55 PM4 °C2 °C87 %1026.4 hPa12.9 kmCalmOvercast
4:15 PM4 °C2 °C87 %1026.4 hPa11.3 kmNorth (360°)7.4 km/hOvercast
4:35 PM4 °C2 °C87 %1026.4 hPa12.9 kmCalmOvercast
4:55 PM4 °C2 °C87 %1026.1 hPa12.9 kmNNW (340°)7.4 km/hOvercast
5:15 PM4 °C2 °C87 %1026.1 hPa16.1 kmNNW (330°)5.6 km/hOvercast
5:35 PM4 °C2 °C87 %1026.1 hPa16.1 kmCalmOvercast
6:15 PM4 °C2 °C87 %1026.1 hPa16.1 kmCalmOvercast
6:35 PM4 °C2 °C87 %1026.1 hPa16.1 kmNorthOvercast
7:15 PM4 °C2 °C87 %1026.1 hPa11.3 kmCalmOvercast
7:35 PM3 °C3 °C100 %1026.4 hPa8 kmCalmOvercast
7:55 PM3 °C3 °C100 %1026.4 hPa8 kmCalmOvercast
8:15 PM3 °C3 °C100 %1026.4 hPa8 kmCalmOvercast
8:35 PM3 °C3 °C100 %1026.4 hPa8 kmCalmOvercast
8:55 PM3 °C3 °C100 %1026.8 hPa8 kmCalmOvercast
9:15 PM3 °C3 °C100 %1026.8 hPa6.4 kmCalmOvercast
9:35 PM3 °C2 °C93 %1027.1 hPa8 kmCalmOvercast
9:55 PM3 °C2 °C93 %1027.1 hPa4.8 kmCalmMostly Cloudy
10:15 PM2 °C2 °C100 %1027.4 hPa4.8 kmCalmMostly Cloudy
10:35 PM2 °C2 °C100 %1027.1 hPa4.8 kmCalmOvercast
11:15 PM3 °C2 °C93 %1027.4 hPa3.2 kmCalmOvercast
11:35 PM2 °C2 °C100 %1027.4 hPa3.2 kmCalmOvercast
11:55 PM2 °C2 °C100 %1027.4 hPa4 kmCalmOvercast
Hourly data recorded from CZBB, located 0 kilometers away from Vancouver, British Columbia







STORIES FROM OUR PARTNERS